Year,Month,Day,Hour,Minute,Value (Times are PST for windspeed in km/hr)
2018,01,20,00,00,0.00
2018,01,20,00,01,0.00
2018,01,20,00,02,0.00
2018,01,20,00,03,0.00
2018,01,20,00,04,0.00
2018,01,20,00,05,0.10
2018,01,20,00,06,0.50
2018,01,20,00,07,0.90
2018,01,20,00,08,0.00
2018,01,20,00,09,1.50
2018,01,20,00,10,2.20
2018,01,20,00,11,1.50
2018,01,20,00,12,1.70
2018,01,20,00,13,2.90
2018,01,20,00,14,1.70
2018,01,20,00,15,2.00
2018,01,20,00,16,5.60
2018,01,20,00,17,5.70
2018,01,20,00,18,3.50
2018,01,20,00,19,3.20
2018,01,20,00,20,3.10
2018,01,20,00,21,3.70
2018,01,20,00,22,5.70
2018,01,20,00,23,3.30
2018,01,20,00,24,3.90
2018,01,20,00,25,1.60
2018,01,20,00,26,2.80
2018,01,20,00,27,2.70
2018,01,20,00,28,2.60
2018,01,20,00,29,3.20
2018,01,20,00,30,4.00
2018,01,20,00,31,2.10
2018,01,20,00,32,2.00
2018,01,20,00,33,3.80
2018,01,20,00,34,2.90
2018,01,20,00,35,3.10
2018,01,20,00,36,3.70
2018,01,20,00,37,3.70
2018,01,20,00,38,2.90
2018,01,20,00,39,4.80
2018,01,20,00,40,4.20
2018,01,20,00,41,3.60
2018,01,20,00,42,4.70
2018,01,20,00,43,3.80
2018,01,20,00,44,6.40
2018,01,20,00,45,4.40
2018,01,20,00,46,5.10
2018,01,20,00,47,6.20
2018,01,20,00,48,4.90
2018,01,20,00,49,3.90
2018,01,20,00,50,6.30
2018,01,20,00,51,4.50
2018,01,20,00,52,5.40
2018,01,20,00,53,4.80
2018,01,20,00,54,4.70
2018,01,20,00,55,5.10
2018,01,20,00,56,6.30
2018,01,20,00,57,8.90
2018,01,20,00,58,8.30
2018,01,20,00,59,4.70
2018,01,20,01,00,5.50
2018,01,20,01,01,4.30
2018,01,20,01,02,7.30
2018,01,20,01,03,5.80
2018,01,20,01,04,6.00
2018,01,20,01,05,5.00
2018,01,20,01,06,3.00
2018,01,20,01,07,5.20
2018,01,20,01,08,4.10
2018,01,20,01,09,5.40
2018,01,20,01,10,4.40
2018,01,20,01,11,4.70
2018,01,20,01,12,5.60
2018,01,20,01,13,5.10
2018,01,20,01,14,3.50
2018,01,20,01,15,4.00
2018,01,20,01,16,3.20
2018,01,20,01,17,2.30
2018,01,20,01,18,3.10
2018,01,20,01,19,2.00
2018,01,20,01,20,2.50
2018,01,20,01,21,2.90
2018,01,20,01,22,2.50
2018,01,20,01,23,3.20
2018,01,20,01,24,3.30
2018,01,20,01,25,2.00
2018,01,20,01,26,5.60
2018,01,20,01,27,4.50
2018,01,20,01,28,3.90
2018,01,20,01,29,4.40
2018,01,20,01,30,4.30
2018,01,20,01,31,4.30
2018,01,20,01,32,5.60
2018,01,20,01,33,4.90
2018,01,20,01,34,4.40
2018,01,20,01,35,3.80
2018,01,20,01,36,4.20
2018,01,20,01,37,5.20
2018,01,20,01,38,6.00
2018,01,20,01,39,4.40
2018,01,20,01,40,6.00
2018,01,20,01,41,3.90
2018,01,20,01,42,2.80
2018,01,20,01,43,1.80
2018,01,20,01,44,2.10
2018,01,20,01,45,2.40
2018,01,20,01,46,1.80
2018,01,20,01,47,2.60
2018,01,20,01,48,3.10
2018,01,20,01,49,3.40
2018,01,20,01,50,2.80
2018,01,20,01,51,1.80
2018,01,20,01,52,3.20
2018,01,20,01,53,2.40
2018,01,20,01,54,3.80
2018,01,20,01,55,3.20
2018,01,20,01,56,3.40
2018,01,20,01,57,2.90
2018,01,20,01,58,3.10
2018,01,20,01,59,2.70
2018,01,20,02,00,2.10
2018,01,20,02,01,2.90
2018,01,20,02,02,4.20
2018,01,20,02,03,3.30
2018,01,20,02,04,2.50
2018,01,20,02,05,1.20
2018,01,20,02,06,2.40
2018,01,20,02,07,1.40
2018,01,20,02,08,1.20
2018,01,20,02,09,2.20
2018,01,20,02,10,1.80
2018,01,20,02,11,2.90
2018,01,20,02,12,3.00
2018,01,20,02,13,2.40
2018,01,20,02,14,1.10
2018,01,20,02,15,1.30
2018,01,20,02,16,2.10
2018,01,20,02,17,1.70
2018,01,20,02,18,2.20
2018,01,20,02,19,0.50
2018,01,20,02,20,1.80
2018,01,20,02,21,4.80
2018,01,20,02,22,1.50
2018,01,20,02,23,2.30
2018,01,20,02,24,4.50
2018,01,20,02,25,4.40
2018,01,20,02,26,7.00
2018,01,20,02,27,6.30
2018,01,20,02,28,5.30
2018,01,20,02,29,5.20
2018,01,20,02,30,6.80
2018,01,20,02,31,6.80
2018,01,20,02,32,6.90
2018,01,20,02,33,6.10
2018,01,20,02,34,3.90
2018,01,20,02,35,2.90
2018,01,20,02,36,2.60
2018,01,20,02,37,2.10
2018,01,20,02,38,2.50
2018,01,20,02,39,3.10
2018,01,20,02,40,1.90
2018,01,20,02,41,1.80
2018,01,20,02,42,3.40
2018,01,20,02,43,4.70
2018,01,20,02,44,4.60
2018,01,20,02,45,5.00
2018,01,20,02,46,4.00
2018,01,20,02,47,4.70
2018,01,20,02,48,2.60
2018,01,20,02,49,2.30
2018,01,20,02,50,1.00
2018,01,20,02,51,6.80
2018,01,20,02,52,4.50
2018,01,20,02,53,3.80
2018,01,20,02,54,4.00
2018,01,20,02,55,6.30
2018,01,20,02,56,5.50
2018,01,20,02,57,5.10
2018,01,20,02,58,5.30
2018,01,20,02,59,3.30
2018,01,20,03,00,3.30
2018,01,20,03,01,1.20
2018,01,20,03,02,4.10
2018,01,20,03,03,4.40
2018,01,20,03,04,4.60
2018,01,20,03,05,3.40
2018,01,20,03,06,3.40
2018,01,20,03,07,4.90
2018,01,20,03,08,5.10
2018,01,20,03,09,4.80
2018,01,20,03,10,4.90
2018,01,20,03,11,4.00
2018,01,20,03,12,4.00
2018,01,20,03,13,2.90
2018,01,20,03,14,2.40
2018,01,20,03,15,6.20
2018,01,20,03,16,7.60
2018,01,20,03,17,5.50
2018,01,20,03,18,6.60
2018,01,20,03,19,5.60
2018,01,20,03,20,5.40
2018,01,20,03,21,3.80
2018,01,20,03,22,2.60
2018,01,20,03,23,4.30
2018,01,20,03,24,4.50
2018,01,20,03,25,4.80
2018,01,20,03,26,4.30
2018,01,20,03,27,4.20
2018,01,20,03,28,4.50
2018,01,20,03,29,4.40
2018,01,20,03,30,3.60
2018,01,20,03,31,3.80
2018,01,20,03,32,2.70
2018,01,20,03,33,3.90
2018,01,20,03,34,4.20
2018,01,20,03,35,4.30
2018,01,20,03,36,3.60
2018,01,20,03,37,3.00
2018,01,20,03,38,3.90
2018,01,20,03,39,3.80
2018,01,20,03,40,4.80
2018,01,20,03,41,3.90
2018,01,20,03,42,4.20
2018,01,20,03,43,3.30
2018,01,20,03,44,3.30
2018,01,20,03,45,3.50
2018,01,20,03,46,3.70
2018,01,20,03,47,4.00
2018,01,20,03,48,4.00
2018,01,20,03,49,2.80
2018,01,20,03,50,2.60
2018,01,20,03,51,2.60
2018,01,20,03,52,2.90
2018,01,20,03,53,1.80
2018,01,20,03,54,2.60
2018,01,20,03,55,3.00
2018,01,20,03,56,2.50
2018,01,20,03,57,2.20
2018,01,20,03,58,2.60
2018,01,20,03,59,2.20
2018,01,20,04,00,1.70
2018,01,20,04,01,2.70
2018,01,20,04,02,3.00
2018,01,20,04,03,2.20
2018,01,20,04,04,1.70
2018,01,20,04,05,2.90
2018,01,20,04,06,1.90
2018,01,20,04,07,1.50
2018,01,20,04,08,1.80
2018,01,20,04,09,1.60
2018,01,20,04,10,0.00
2018,01,20,04,11,0.20
2018,01,20,04,12,2.40
2018,01,20,04,13,3.40
2018,01,20,04,14,3.10
2018,01,20,04,15,1.90
2018,01,20,04,16,0.60
2018,01,20,04,17,1.10
2018,01,20,04,18,1.90
2018,01,20,04,19,1.60
2018,01,20,04,20,2.40
2018,01,20,04,21,2.40
2018,01,20,04,22,3.20
2018,01,20,04,23,2.10
2018,01,20,04,24,1.70
2018,01,20,04,25,2.40
2018,01,20,04,26,2.90
2018,01,20,04,27,2.60
2018,01,20,04,28,3.10
2018,01,20,04,29,4.40
2018,01,20,04,30,2.70
2018,01,20,04,31,2.40
2018,01,20,04,32,2.00
2018,01,20,04,33,1.30
2018,01,20,04,34,1.30
2018,01,20,04,35,0.90
2018,01,20,04,36,1.40
2018,01,20,04,37,0.50
2018,01,20,04,38,3.00
2018,01,20,04,39,2.20
2018,01,20,04,40,1.80
2018,01,20,04,41,1.40
2018,01,20,04,42,1.10
2018,01,20,04,43,1.30
2018,01,20,04,44,2.00
2018,01,20,04,45,1.50
2018,01,20,04,46,0.70
2018,01,20,04,47,0.40
2018,01,20,04,48,0.00
2018,01,20,04,49,0.10
2018,01,20,04,50,0.00
2018,01,20,04,51,0.00
2018,01,20,04,52,0.00
2018,01,20,04,53,0.50
2018,01,20,04,54,0.50
2018,01,20,04,55,0.10
2018,01,20,04,56,0.20
2018,01,20,04,57,0.00
2018,01,20,04,58,0.40
2018,01,20,04,59,1.10
2018,01,20,05,00,1.10
2018,01,20,05,01,0.90
2018,01,20,05,02,1.20
2018,01,20,05,03,0.50
2018,01,20,05,04,0.20
2018,01,20,05,05,0.00
2018,01,20,05,06,0.00
2018,01,20,05,07,0.70
2018,01,20,05,08,0.20
2018,01,20,05,09,0.00
2018,01,20,05,10,0.00
2018,01,20,05,11,0.60
2018,01,20,05,12,0.10
2018,01,20,05,13,0.00
2018,01,20,05,14,0.00
2018,01,20,05,15,0.50
2018,01,20,05,16,1.90
2018,01,20,05,17,1.30
2018,01,20,05,18,2.10
2018,01,20,05,19,1.40
2018,01,20,05,20,0.00
2018,01,20,05,21,0.20
2018,01,20,05,22,0.00
2018,01,20,05,23,0.00
2018,01,20,05,24,0.00
2018,01,20,05,25,0.00
2018,01,20,05,26,0.00
2018,01,20,05,27,0.10
2018,01,20,05,28,1.50
2018,01,20,05,29,2.20
2018,01,20,05,30,2.90
2018,01,20,05,31,2.50
2018,01,20,05,32,2.20
2018,01,20,05,33,2.10
2018,01,20,05,34,1.90
2018,01,20,05,35,2.10
2018,01,20,05,36,0.50
2018,01,20,05,37,0.00
2018,01,20,05,38,0.00
2018,01,20,05,39,0.00
2018,01,20,05,40,0.00
2018,01,20,05,41,0.00
2018,01,20,05,42,0.00
2018,01,20,05,43,0.00
2018,01,20,05,44,0.00
2018,01,20,05,45,0.00
2018,01,20,05,46,0.00
2018,01,20,05,47,0.00
2018,01,20,05,48,0.00
2018,01,20,05,49,0.00
2018,01,20,05,50,0.00
2018,01,20,05,51,0.00
2018,01,20,05,52,0.00
2018,01,20,05,53,0.00
2018,01,20,05,54,0.00
2018,01,20,05,55,0.00
2018,01,20,05,56,0.00
2018,01,20,05,57,0.00
2018,01,20,05,58,0.00
2018,01,20,05,59,0.00
2018,01,20,06,00,0.00
2018,01,20,06,01,0.00
2018,01,20,06,02,0.00
2018,01,20,06,03,0.00
2018,01,20,06,04,0.00
2018,01,20,06,05,0.00
2018,01,20,06,06,0.00
2018,01,20,06,07,1.60
2018,01,20,06,08,0.00
2018,01,20,06,09,0.10
2018,01,20,06,10,1.60
2018,01,20,06,11,3.00
2018,01,20,06,12,2.40
2018,01,20,06,13,1.60
2018,01,20,06,14,1.70
2018,01,20,06,15,2.00
2018,01,20,06,16,1.70
2018,01,20,06,17,1.20
2018,01,20,06,18,1.10
2018,01,20,06,19,1.30
2018,01,20,06,20,0.70
2018,01,20,06,21,0.50
2018,01,20,06,22,1.50
2018,01,20,06,23,1.20
2018,01,20,06,24,1.20
2018,01,20,06,25,0.60
2018,01,20,06,26,3.00
2018,01,20,06,27,3.30
2018,01,20,06,28,2.00
2018,01,20,06,29,1.70
2018,01,20,06,30,1.90
2018,01,20,06,31,2.20
2018,01,20,06,32,2.00
2018,01,20,06,33,2.40
2018,01,20,06,34,2.90
2018,01,20,06,35,1.10
2018,01,20,06,36,1.40
2018,01,20,06,37,3.20
2018,01,20,06,38,6.00
2018,01,20,06,39,2.80
2018,01,20,06,40,3.40
2018,01,20,06,41,3.00
2018,01,20,06,42,1.20
2018,01,20,06,43,2.10
2018,01,20,06,44,4.30
2018,01,20,06,45,3.30
2018,01,20,06,46,3.50
2018,01,20,06,47,3.60
2018,01,20,06,48,3.80
2018,01,20,06,49,2.30
2018,01,20,06,50,3.70
2018,01,20,06,51,3.30
2018,01,20,06,52,3.10
2018,01,20,06,53,3.20
2018,01,20,06,54,5.80
2018,01,20,06,55,4.30
2018,01,20,06,56,2.70
2018,01,20,06,57,4.30
2018,01,20,06,58,4.20
2018,01,20,06,59,3.70
2018,01,20,07,00,3.30
2018,01,20,07,01,3.10
2018,01,20,07,02,2.20
2018,01,20,07,03,1.30
2018,01,20,07,04,3.00
2018,01,20,07,05,2.80
2018,01,20,07,06,4.20
2018,01,20,07,07,4.60
2018,01,20,07,08,5.90
2018,01,20,07,09,6.00
2018,01,20,07,10,5.50
2018,01,20,07,11,9.70
2018,01,20,07,12,7.60
2018,01,20,07,13,5.20
2018,01,20,07,14,7.60
2018,01,20,07,15,9.50
2018,01,20,07,16,7.90
2018,01,20,07,17,5.60
2018,01,20,07,18,9.40
2018,01,20,07,19,7.30
2018,01,20,07,20,5.20
2018,01,20,07,21,3.80
2018,01,20,07,22,5.40
2018,01,20,07,23,5.80
2018,01,20,07,24,7.20
2018,01,20,07,25,9.80
2018,01,20,07,26,7.20
2018,01,20,07,27,5.10
2018,01,20,07,28,9.90
2018,01,20,07,29,10.40
2018,01,20,07,30,4.20
2018,01,20,07,31,7.50
2018,01,20,07,32,11.70
2018,01,20,07,33,6.60
2018,01,20,07,34,4.50
2018,01,20,07,35,4.60
2018,01,20,07,36,6.70
2018,01,20,07,37,6.40
2018,01,20,07,38,6.20
2018,01,20,07,39,6.20
2018,01,20,07,40,6.20
2018,01,20,07,41,4.10
2018,01,20,07,42,7.30
2018,01,20,07,43,9.80
2018,01,20,07,44,8.40
2018,01,20,07,45,6.70
2018,01,20,07,46,6.40
2018,01,20,07,47,8.70
2018,01,20,07,48,6.60
2018,01,20,07,49,4.40
2018,01,20,07,50,3.80
2018,01,20,07,51,3.50
2018,01,20,07,52,6.70
2018,01,20,07,53,3.50
2018,01,20,07,54,3.00
2018,01,20,07,55,5.40
2018,01,20,07,56,3.80
2018,01,20,07,57,1.90
2018,01,20,07,58,2.20
2018,01,20,07,59,3.60
2018,01,20,08,00,3.20
2018,01,20,08,01,4.40
2018,01,20,08,02,4.80
2018,01,20,08,03,4.20
2018,01,20,08,04,5.20
2018,01,20,08,05,3.50
2018,01,20,08,06,6.30
2018,01,20,08,07,5.30
2018,01,20,08,08,6.90
2018,01,20,08,09,4.10
2018,01,20,08,10,2.50
2018,01,20,08,11,4.80
2018,01,20,08,12,5.30
2018,01,20,08,13,7.00
2018,01,20,08,14,4.80
2018,01,20,08,15,5.00
2018,01,20,08,16,5.30
2018,01,20,08,17,2.10
2018,01,20,08,18,3.20
2018,01,20,08,19,6.40
2018,01,20,08,20,5.90
2018,01,20,08,21,6.10
2018,01,20,08,22,8.40
2018,01,20,08,23,6.00
2018,01,20,08,24,7.50
2018,01,20,08,25,5.90
2018,01,20,08,26,6.30
2018,01,20,08,27,8.70
2018,01,20,08,28,5.30
2018,01,20,08,29,10.30
2018,01,20,08,30,7.30
2018,01,20,08,31,6.00
2018,01,20,08,32,7.80
2018,01,20,08,33,5.10
2018,01,20,08,34,3.30
2018,01,20,08,35,7.80
2018,01,20,08,36,9.30
2018,01,20,08,37,8.90
2018,01,20,08,38,9.40
2018,01,20,08,39,8.00
2018,01,20,08,40,3.60
2018,01,20,08,41,7.40
2018,01,20,08,42,7.60
2018,01,20,08,43,8.10
2018,01,20,08,44,9.50
2018,01,20,08,45,10.30
2018,01,20,08,46,6.80
2018,01,20,08,47,6.90
2018,01,20,08,48,8.10
2018,01,20,08,49,7.20
2018,01,20,08,50,9.30
2018,01,20,08,51,10.60
2018,01,20,08,52,8.20
2018,01,20,08,53,7.60
2018,01,20,08,54,7.20
2018,01,20,08,55,8.10
2018,01,20,08,56,9.20
2018,01,20,08,57,12.80
2018,01,20,08,58,9.90
2018,01,20,08,59,8.70
2018,01,20,09,00,12.00
2018,01,20,09,01,8.70
2018,01,20,09,02,10.40
2018,01,20,09,03,10.50
2018,01,20,09,04,7.80
2018,01,20,09,05,7.10
2018,01,20,09,06,7.00
2018,01,20,09,07,6.00
2018,01,20,09,08,6.80
2018,01,20,09,09,5.20
2018,01,20,09,10,6.80
2018,01,20,09,11,6.40
2018,01,20,09,12,12.90
2018,01,20,09,13,9.20
2018,01,20,09,14,7.20
2018,01,20,09,15,9.50
2018,01,20,09,16,8.50
2018,01,20,09,17,13.90
2018,01,20,09,18,12.20
2018,01,20,09,19,11.40
2018,01,20,09,20,7.80
2018,01,20,09,21,10.10
2018,01,20,09,22,11.70
2018,01,20,09,23,8.20
2018,01,20,09,24,10.90
2018,01,20,09,25,6.70
2018,01,20,09,26,8.20
2018,01,20,09,27,9.40
2018,01,20,09,28,10.40
2018,01,20,09,29,11.90
2018,01,20,09,30,12.70
2018,01,20,09,31,9.40
2018,01,20,09,32,8.30
2018,01,20,09,33,7.40
2018,01,20,09,34,11.30
2018,01,20,09,35,10.30
2018,01,20,09,36,12.40
2018,01,20,09,37,9.00
2018,01,20,09,38,9.90
2018,01,20,09,39,7.10
2018,01,20,09,40,8.30
2018,01,20,09,41,7.90
2018,01,20,09,42,9.40
2018,01,20,09,43,7.60
2018,01,20,09,44,8.50
2018,01,20,09,45,7.70
2018,01,20,09,46,8.30
2018,01,20,09,47,9.10
2018,01,20,09,48,7.40
2018,01,20,09,49,6.60
2018,01,20,09,50,7.40
2018,01,20,09,51,7.70
2018,01,20,09,52,4.40
2018,01,20,09,53,9.10
2018,01,20,09,54,9.90
2018,01,20,09,55,8.40
2018,01,20,09,56,7.80
2018,01,20,09,57,6.30
2018,01,20,09,58,5.90
2018,01,20,09,59,8.00
2018,01,20,10,00,7.60
2018,01,20,10,01,5.50
2018,01,20,10,02,12.10
2018,01,20,10,03,11.20
2018,01,20,10,04,11.50
2018,01,20,10,05,10.20
2018,01,20,10,06,7.20
2018,01,20,10,07,5.70
2018,01,20,10,08,7.40
2018,01,20,10,09,8.70
2018,01,20,10,10,14.40
2018,01,20,10,11,14.20
2018,01,20,10,12,7.80
2018,01,20,10,13,8.10
2018,01,20,10,14,9.00
2018,01,20,10,15,11.10
2018,01,20,10,16,12.80
2018,01,20,10,17,11.70
2018,01,20,10,18,9.20
2018,01,20,10,19,16.10
2018,01,20,10,20,14.80
2018,01,20,10,21,14.90
2018,01,20,10,22,7.40
2018,01,20,10,23,9.90
2018,01,20,10,24,9.40
2018,01,20,10,25,9.50
2018,01,20,10,26,10.90
2018,01,20,10,27,9.30
2018,01,20,10,28,10.20
2018,01,20,10,29,13.60
2018,01,20,10,30,16.50
2018,01,20,10,31,8.50
2018,01,20,10,32,12.30
2018,01,20,10,33,12.50
2018,01,20,10,34,11.90
2018,01,20,10,35,10.20
2018,01,20,10,36,13.30
2018,01,20,10,37,9.70
2018,01,20,10,38,13.80
2018,01,20,10,39,12.30
2018,01,20,10,40,11.20
2018,01,20,10,41,17.20
2018,01,20,10,42,13.20
2018,01,20,10,43,19.30
2018,01,20,10,44,15.80
2018,01,20,10,45,13.30
2018,01,20,10,46,12.00
2018,01,20,10,47,9.90
2018,01,20,10,48,12.20
2018,01,20,10,49,9.10
2018,01,20,10,50,13.60
2018,01,20,10,51,9.90
2018,01,20,10,52,9.00
2018,01,20,10,53,8.90
2018,01,20,10,54,8.90
2018,01,20,10,55,11.70
2018,01,20,10,56,14.40
2018,01,20,10,57,8.30
2018,01,20,10,58,9.30
2018,01,20,10,59,4.10
2018,01,20,11,00,10.10
2018,01,20,11,01,12.80
2018,01,20,11,02,13.90
2018,01,20,11,03,11.30
2018,01,20,11,04,8.30
2018,01,20,11,05,18.00
2018,01,20,11,06,16.80
2018,01,20,11,07,17.60
2018,01,20,11,08,14.40
2018,01,20,11,09,15.50
2018,01,20,11,10,6.20
2018,01,20,11,11,12.50
2018,01,20,11,12,13.40
2018,01,20,11,13,10.90
2018,01,20,11,14,12.50
2018,01,20,11,15,16.40
2018,01,20,11,16,11.30
2018,01,20,11,17,15.90
2018,01,20,11,18,14.10
2018,01,20,11,19,12.60
2018,01,20,11,20,8.80
2018,01,20,11,21,18.00
2018,01,20,11,22,18.90
2018,01,20,11,23,15.70
2018,01,20,11,24,17.10
2018,01,20,11,25,13.60
2018,01,20,11,26,15.40
2018,01,20,11,27,20.90
2018,01,20,11,28,19.10
2018,01,20,11,29,19.90
2018,01,20,11,30,15.10
2018,01,20,11,31,13.60
2018,01,20,11,32,18.70
2018,01,20,11,33,9.70
2018,01,20,11,34,11.00
2018,01,20,11,35,22.40
2018,01,20,11,36,21.40
2018,01,20,11,37,14.50
2018,01,20,11,38,19.50
2018,01,20,11,39,25.60
2018,01,20,11,40,22.70
2018,01,20,11,41,20.70
2018,01,20,11,42,18.20
2018,01,20,11,43,18.10
2018,01,20,11,44,16.40
2018,01,20,11,45,21.20
2018,01,20,11,46,17.20
2018,01,20,11,47,11.70
2018,01,20,11,48,16.50
2018,01,20,11,49,19.00
2018,01,20,11,50,16.40
2018,01,20,11,51,24.10
2018,01,20,11,52,20.50
2018,01,20,11,53,16.40
2018,01,20,11,54,12.90
2018,01,20,11,55,10.80
2018,01,20,11,56,19.40
2018,01,20,11,57,19.20
2018,01,20,11,58,20.80
2018,01,20,11,59,19.10
2018,01,20,12,00,13.20
2018,01,20,12,01,15.60
2018,01,20,12,02,16.60
2018,01,20,12,03,9.90
2018,01,20,12,04,18.80
2018,01,20,12,05,28.20
2018,01,20,12,06,19.30
2018,01,20,12,07,18.00
2018,01,20,12,08,19.40
2018,01,20,12,09,13.50
2018,01,20,12,10,19.00
2018,01,20,12,11,20.50
2018,01,20,12,12,14.00
2018,01,20,12,13,13.90
2018,01,20,12,14,27.00
2018,01,20,12,15,19.70
2018,01,20,12,16,16.90
2018,01,20,12,17,16.60
2018,01,20,12,18,22.90
2018,01,20,12,19,20.30
2018,01,20,12,20,20.80
2018,01,20,12,21,23.60
2018,01,20,12,22,19.30
2018,01,20,12,23,19.40
2018,01,20,12,24,21.40
2018,01,20,12,25,19.40
2018,01,20,12,26,18.00
2018,01,20,12,27,14.50
2018,01,20,12,28,19.90
2018,01,20,12,29,17.00
2018,01,20,12,30,17.60
2018,01,20,12,31,17.70
2018,01,20,12,32,22.40
2018,01,20,12,33,20.10
2018,01,20,12,34,19.10
2018,01,20,12,35,18.40
2018,01,20,12,36,21.50
2018,01,20,12,37,23.00
2018,01,20,12,38,18.90
2018,01,20,12,39,15.90
2018,01,20,12,40,11.00
2018,01,20,12,41,11.80
2018,01,20,12,42,20.60
2018,01,20,12,43,26.50
2018,01,20,12,44,25.50
2018,01,20,12,45,19.00
2018,01,20,12,46,18.90
2018,01,20,12,47,13.40
2018,01,20,12,48,18.60
2018,01,20,12,49,16.60
2018,01,20,12,50,13.80
2018,01,20,12,51,17.60
2018,01,20,12,52,19.90
2018,01,20,12,53,15.70
2018,01,20,12,54,28.10
2018,01,20,12,55,19.80
2018,01,20,12,56,19.50
2018,01,20,12,57,18.40
2018,01,20,12,58,14.90
2018,01,20,12,59,17.30
2018,01,20,13,00,20.00
2018,01,20,13,01,15.40
2018,01,20,13,02,22.00
2018,01,20,13,03,20.60
2018,01,20,13,04,16.70
2018,01,20,13,05,21.90
2018,01,20,13,06,15.40
2018,01,20,13,07,10.50
2018,01,20,13,08,12.70
2018,01,20,13,09,17.10
2018,01,20,13,10,15.10
2018,01,20,13,11,17.00
2018,01,20,13,12,13.80
2018,01,20,13,13,16.10
2018,01,20,13,14,14.50
2018,01,20,13,15,19.60
2018,01,20,13,16,14.90
2018,01,20,13,17,17.00
2018,01,20,13,18,15.20
2018,01,20,13,19,20.40
2018,01,20,13,20,23.00
2018,01,20,13,21,20.10
2018,01,20,13,22,18.80
2018,01,20,13,23,19.20
2018,01,20,13,24,19.60
2018,01,20,13,25,22.40
2018,01,20,13,26,23.20
2018,01,20,13,27,20.80
2018,01,20,13,28,26.60
2018,01,20,13,29,21.90
2018,01,20,13,30,20.30
2018,01,20,13,31,18.90
2018,01,20,13,32,14.30
2018,01,20,13,33,12.60
2018,01,20,13,34,11.40
2018,01,20,13,35,22.40
2018,01,20,13,36,19.50
2018,01,20,13,37,16.70
2018,01,20,13,38,18.30
2018,01,20,13,39,21.00
2018,01,20,13,40,21.70
2018,01,20,13,41,14.00
2018,01,20,13,42,17.60
2018,01,20,13,43,21.40
2018,01,20,13,44,13.10
2018,01,20,13,45,14.50
2018,01,20,13,46,17.30
2018,01,20,13,47,15.50
2018,01,20,13,48,25.20
2018,01,20,13,49,28.60
2018,01,20,13,50,20.40
2018,01,20,13,51,23.90
2018,01,20,13,52,24.00
2018,01,20,13,53,17.20
2018,01,20,13,54,19.10
2018,01,20,13,55,18.30
2018,01,20,13,56,19.60
2018,01,20,13,57,25.70
2018,01,20,13,58,14.50
2018,01,20,13,59,18.50
2018,01,20,14,00,16.20
2018,01,20,14,01,16.10
2018,01,20,14,02,18.20
2018,01,20,14,03,22.30
2018,01,20,14,04,21.20
2018,01,20,14,05,18.30
2018,01,20,14,06,25.90
2018,01,20,14,07,14.70
2018,01,20,14,08,18.10
2018,01,20,14,09,19.80
2018,01,20,14,10,21.10
2018,01,20,14,11,29.00
2018,01,20,14,12,20.20
2018,01,20,14,13,20.40
2018,01,20,14,14,22.10
2018,01,20,14,15,15.00
2018,01,20,14,16,11.00
2018,01,20,14,17,18.60
2018,01,20,14,18,18.30
2018,01,20,14,19,23.40
2018,01,20,14,20,17.50
2018,01,20,14,21,17.40
2018,01,20,14,22,17.00
2018,01,20,14,23,16.80
2018,01,20,14,24,20.70
2018,01,20,14,25,22.50
2018,01,20,14,26,15.40
2018,01,20,14,27,24.80
2018,01,20,14,28,17.00
2018,01,20,14,29,22.70
2018,01,20,14,30,15.80
2018,01,20,14,31,15.40
2018,01,20,14,32,12.20
2018,01,20,14,33,14.90
2018,01,20,14,34,16.90
2018,01,20,14,35,20.10
2018,01,20,14,36,19.30
2018,01,20,14,37,20.30
2018,01,20,14,38,25.10
2018,01,20,14,39,23.50
2018,01,20,14,40,12.50
2018,01,20,14,41,16.20
2018,01,20,14,42,21.10
2018,01,20,14,43,23.20
2018,01,20,14,44,13.40
2018,01,20,14,45,9.50
2018,01,20,14,46,20.80
2018,01,20,14,47,19.80
2018,01,20,14,48,23.10
2018,01,20,14,49,18.00
2018,01,20,14,50,21.30
2018,01,20,14,51,22.20
2018,01,20,14,52,23.60
2018,01,20,14,53,18.80
2018,01,20,14,54,26.20
2018,01,20,14,55,18.60
2018,01,20,14,56,24.70
2018,01,20,14,57,21.30
2018,01,20,14,58,19.10
2018,01,20,14,59,26.30
2018,01,20,15,00,18.10
2018,01,20,15,01,27.20
2018,01,20,15,02,23.00
2018,01,20,15,03,15.80
2018,01,20,15,04,22.80
2018,01,20,15,05,19.40
2018,01,20,15,06,23.40
2018,01,20,15,07,25.50
2018,01,20,15,08,24.90
2018,01,20,15,09,19.80
2018,01,20,15,10,16.50
2018,01,20,15,11,24.50
2018,01,20,15,12,22.00
2018,01,20,15,13,20.60
2018,01,20,15,14,21.00
2018,01,20,15,15,27.60
2018,01,20,15,16,25.20
2018,01,20,15,17,27.60
2018,01,20,15,18,24.60
2018,01,20,15,19,19.30
2018,01,20,15,20,26.70
2018,01,20,15,21,30.30
2018,01,20,15,22,18.10
2018,01,20,15,23,19.50
2018,01,20,15,24,18.90
2018,01,20,15,25,17.60
2018,01,20,15,26,29.40
2018,01,20,15,27,27.00
2018,01,20,15,28,19.50
2018,01,20,15,29,21.50
2018,01,20,15,30,17.90
2018,01,20,15,31,18.40
2018,01,20,15,32,26.70
2018,01,20,15,33,24.40
2018,01,20,15,34,28.10
2018,01,20,15,35,26.40
2018,01,20,15,36,21.80
2018,01,20,15,37,25.00
2018,01,20,15,38,25.80
2018,01,20,15,39,26.70
2018,01,20,15,40,25.30
2018,01,20,15,41,32.70
2018,01,20,15,42,25.00
2018,01,20,15,43,25.50
2018,01,20,15,44,27.00
2018,01,20,15,45,24.20
2018,01,20,15,46,20.90
2018,01,20,15,47,25.60
2018,01,20,15,48,16.00
2018,01,20,15,49,15.50
2018,01,20,15,50,24.40
2018,01,20,15,51,17.10
2018,01,20,15,52,20.40
2018,01,20,15,53,20.70
2018,01,20,15,54,21.10
2018,01,20,15,55,20.10
2018,01,20,15,56,18.10
2018,01,20,15,57,16.70
2018,01,20,15,58,21.40
2018,01,20,15,59,24.40
2018,01,20,16,00,19.50
2018,01,20,16,01,21.20
2018,01,20,16,02,20.20
2018,01,20,16,03,13.30
2018,01,20,16,04,18.10
2018,01,20,16,05,15.50
2018,01,20,16,06,18.80
2018,01,20,16,07,23.10
2018,01,20,16,08,21.30
2018,01,20,16,09,23.00
2018,01,20,16,10,19.20
2018,01,20,16,11,22.60
2018,01,20,16,12,21.10
2018,01,20,16,13,25.50
2018,01,20,16,14,19.10
2018,01,20,16,15,25.40
2018,01,20,16,16,24.80
2018,01,20,16,17,17.50
2018,01,20,16,18,16.80
2018,01,20,16,19,14.70
2018,01,20,16,20,23.70
2018,01,20,16,21,19.20
2018,01,20,16,22,17.60
2018,01,20,16,23,20.30
2018,01,20,16,24,24.00
2018,01,20,16,25,28.40
2018,01,20,16,26,23.20
2018,01,20,16,27,19.90
2018,01,20,16,28,23.10
2018,01,20,16,29,26.70
2018,01,20,16,30,19.80
2018,01,20,16,31,23.30
2018,01,20,16,32,22.00
2018,01,20,16,33,19.80
2018,01,20,16,34,17.20
2018,01,20,16,35,21.20
2018,01,20,16,36,17.40
2018,01,20,16,37,21.80
2018,01,20,16,38,18.90
2018,01,20,16,39,20.20
2018,01,20,16,40,19.10
2018,01,20,16,41,16.40
2018,01,20,16,42,18.10
2018,01,20,16,43,19.30
2018,01,20,16,44,22.10
2018,01,20,16,45,16.70
2018,01,20,16,46,14.60
2018,01,20,16,47,22.60
2018,01,20,16,48,20.80
2018,01,20,16,49,18.70
2018,01,20,16,50,14.00
2018,01,20,16,51,13.70
2018,01,20,16,52,19.60
2018,01,20,16,53,18.50
2018,01,20,16,54,16.50
2018,01,20,16,55,17.90
2018,01,20,16,56,18.30
2018,01,20,16,57,18.40
2018,01,20,16,58,19.60
2018,01,20,16,59,11.70
2018,01,20,17,00,20.60
2018,01,20,17,01,18.30
2018,01,20,17,02,14.00
2018,01,20,17,03,13.00
2018,01,20,17,04,13.50
2018,01,20,17,05,17.20
2018,01,20,17,06,18.90
2018,01,20,17,07,16.50
2018,01,20,17,08,18.20
2018,01,20,17,09,21.00
2018,01,20,17,10,17.80
2018,01,20,17,11,18.80
2018,01,20,17,12,18.50
2018,01,20,17,13,21.10
2018,01,20,17,14,26.60
2018,01,20,17,15,23.40
2018,01,20,17,16,18.50
2018,01,20,17,17,22.00
2018,01,20,17,18,21.10
2018,01,20,17,19,22.30
2018,01,20,17,20,17.70
2018,01,20,17,21,14.30
2018,01,20,17,22,20.30
2018,01,20,17,23,18.60
2018,01,20,17,24,19.70
2018,01,20,17,25,27.40
2018,01,20,17,26,26.70
2018,01,20,17,27,19.00
2018,01,20,17,28,17.30
2018,01,20,17,29,18.40
2018,01,20,17,30,21.40
2018,01,20,17,31,19.00
2018,01,20,17,32,15.30
2018,01,20,17,33,20.00
2018,01,20,17,34,20.10
2018,01,20,17,35,17.80
2018,01,20,17,36,16.10
2018,01,20,17,37,12.20
2018,01,20,17,38,15.30
2018,01,20,17,39,13.50
2018,01,20,17,40,15.30
2018,01,20,17,41,11.50
2018,01,20,17,42,14.90
2018,01,20,17,43,16.40
2018,01,20,17,44,18.10
2018,01,20,17,45,16.00